Time,TemperatureF,DewpointF,PressureIn,WindDirection,WindDirectionDegrees,WindSpeedMPH,WindSpeedGustMPH,Humidity,HourlyPrecipIn,Conditions,Clouds,dailyrainin,SoftwareType,DateUTC
2013-04-08 00:10:00,49.7,48.0,29.63,ENE,70,1.0,1.0,94,0.00,,,0.00,Wunderground v.1.15,2013-04-08 05:10:00,
2013-04-08 00:20:00,49.4,47.7,29.63,East,100,0.0,0.0,94,0.00,,,0.00,Wunderground v.1.15,2013-04-08 05:20:00,
2013-04-08 00:30:00,49.2,47.8,29.63,East,84,0.0,0.0,95,0.00,,,0.01,Wunderground v.1.15,2013-04-08 05:30:00,
2013-04-08 00:40:00,49.3,47.9,29.63,East,98,0.0,0.0,95,0.00,,,0.01,Wunderground v.1.15,2013-04-08 05:40:00,
2013-04-08 00:50:00,49.7,48.3,29.63,East,94,1.0,1.0,95,0.00,,,0.01,Wunderground v.1.15,2013-04-08 05:50:00,
2013-04-08 01:00:00,50.0,48.6,29.64,ENE,75,1.0,1.0,95,0.00,,,0.01,Wunderground v.1.15,2013-04-08 06:00:00,
2013-04-08 01:10:00,50.2,48.8,29.64,East,92,1.0,1.0,95,0.00,,,0.01,Wunderground v.1.15,2013-04-08 06:10:00,
2013-04-08 01:20:00,50.4,49.0,29.63,East,85,0.0,0.0,95,0.00,,,0.01,Wunderground v.1.15,2013-04-08 06:20:00,
2013-04-08 01:40:00,51.2,49.8,29.63,ESE,108,1.0,1.0,95,0.00,,,0.01,Wunderground v.1.15,2013-04-08 06:40:00,
2013-04-08 01:50:00,51.5,50.1,29.63,ESE,113,1.0,1.0,95,0.00,,,0.01,Wunderground v.1.15,2013-04-08 06:50:00,
2013-04-08 02:00:00,51.7,50.3,29.62,East,83,1.0,1.0,95,0.00,,,0.01,Wunderground v.1.15,2013-04-08 07:00:00,
2013-04-08 02:10:00,51.9,50.5,29.62,ENE,69,1.0,2.0,95,0.00,,,0.01,Wunderground v.1.15,2013-04-08 07:10:00,
2013-04-08 02:20:00,52.0,50.6,29.61,ESE,110,1.0,1.0,95,0.00,,,0.01,Wunderground v.1.15,2013-04-08 07:20:00,
2013-04-08 02:30:00,52.1,50.4,29.61,East,80,0.0,0.0,94,0.00,,,0.01,Wunderground v.1.15,2013-04-08 07:30:00,
2013-04-08 02:40:00,52.2,50.5,29.61,ESE,110,0.0,0.0,94,0.00,,,0.01,Wunderground v.1.15,2013-04-08 07:40:00,
2013-04-08 02:50:00,52.4,50.7,29.61,SE,131,1.0,1.0,94,0.00,,,0.01,Wunderground v.1.15,2013-04-08 07:50:00,
2013-04-08 03:10:00,52.9,51.5,29.62,SE,129,1.0,1.0,95,0.00,,,0.01,Wunderground v.1.15,2013-04-08 08:10:00,
2013-04-08 03:20:00,53.1,51.7,29.61,East,101,0.0,0.0,95,0.00,,,0.01,Wunderground v.1.15,2013-04-08 08:20:00,
2013-04-08 03:30:00,53.3,51.9,29.60,ESE,102,0.0,0.0,95,0.00,,,0.01,Wunderground v.1.15,2013-04-08 08:30:00,
2013-04-08 03:40:00,53.4,52.0,29.61,East,101,0.0,0.0,95,0.00,,,0.01,Wunderground v.1.15,2013-04-08 08:40:00,
2013-04-08 03:50:00,53.6,52.2,29.61,East,101,0.0,0.0,95,0.00,,,0.01,Wunderground v.1.15,2013-04-08 08:50:00,
2013-04-08 04:00:00,53.7,52.3,29.61,East,101,0.0,0.0,95,0.00,,,0.01,Wunderground v.1.15,2013-04-08 09:00:00,
2013-04-08 04:10:00,53.7,52.3,29.60,ESE,102,0.0,0.0,95,0.00,,,0.01,Wunderground v.1.15,2013-04-08 09:10:00,
2013-04-08 04:20:00,53.6,52.2,29.61,East,101,0.0,0.0,95,0.00,,,0.01,Wunderground v.1.15,2013-04-08 09:20:00,
2013-04-08 04:30:00,53.4,52.0,29.60,ESE,102,0.0,0.0,95,0.00,,,0.01,Wunderground v.1.15,2013-04-08 09:30:00,
2013-04-08 04:40:00,53.4,52.0,29.59,East,101,0.0,0.0,95,0.00,,,0.01,Wunderground v.1.15,2013-04-08 09:40:00,
2013-04-08 04:50:00,53.6,52.5,29.59,East,101,0.0,0.0,96,0.00,,,0.01,Wunderground v.1.15,2013-04-08 09:50:00,
2013-04-08 05:00:00,53.7,52.6,29.59,ESE,110,0.0,0.0,96,0.00,,,0.01,Wunderground v.1.15,2013-04-08 10:00:00,
2013-04-08 05:10:00,53.8,52.7,29.59,NE,48,0.0,0.0,96,0.00,,,0.01,Wunderground v.1.15,2013-04-08 10:10:00,
2013-04-08 05:20:00,53.8,52.7,29.59,NE,45,1.0,2.0,96,0.00,,,0.01,Wunderground v.1.15,2013-04-08 10:20:00,
2013-04-08 05:30:00,54.1,53.0,29.59,NE,49,1.0,2.0,96,0.00,,,0.01,Wunderground v.1.15,2013-04-08 10:30:00,
2013-04-08 05:40:00,54.2,53.1,29.58,ESE,107,0.0,0.0,96,0.00,,,0.01,Wunderground v.1.15,2013-04-08 10:40:00,
2013-04-08 05:50:00,54.4,53.3,29.59,ENE,77,1.0,1.0,96,0.00,,,0.01,Wunderground v.1.15,2013-04-08 10:50:00,
2013-04-08 06:00:00,54.6,53.5,29.59,East,87,0.0,0.0,96,0.00,,,0.01,Wunderground v.1.15,2013-04-08 11:00:00,
2013-04-08 06:10:00,54.7,53.6,29.58,East,98,0.0,0.0,96,0.00,,,0.01,Wunderground v.1.15,2013-04-08 11:10:00,
2013-04-08 06:20:00,54.9,53.8,29.58,East,85,1.0,1.0,96,0.00,,,0.01,Wunderground v.1.15,2013-04-08 11:20:00,
2013-04-08 06:30:00,55.0,53.9,29.58,ESE,108,0.0,0.0,96,0.00,,,0.01,Wunderground v.1.15,2013-04-08 11:30:00,
2013-04-08 06:40:00,55.3,54.2,29.58,East,87,0.0,1.0,96,0.00,,,0.01,Wunderground v.1.15,2013-04-08 11:40:00,
2013-04-08 06:50:00,55.6,54.5,29.59,NE,47,0.0,0.0,96,0.00,,,0.01,Wunderground v.1.15,2013-04-08 11:50:00,
2013-04-08 07:00:00,55.8,54.7,29.60,ESE,105,0.0,1.0,96,0.00,,,0.01,Wunderground v.1.15,2013-04-08 12:00:00,
2013-04-08 07:10:00,55.8,54.7,29.60,SE,129,1.0,1.0,96,0.00,,,0.01,Wunderground v.1.15,2013-04-08 12:10:00,
2013-04-08 07:20:00,55.8,54.7,29.60,East,97,0.0,0.0,96,0.00,,,0.01,Wunderground v.1.15,2013-04-08 12:20:00,
2013-04-08 07:30:00,55.8,54.7,29.60,East,98,0.0,0.0,96,0.00,,,0.01,Wunderground v.1.15,2013-04-08 12:30:00,
2013-04-08 07:40:00,55.8,54.7,29.60,East,98,0.0,0.0,96,0.00,,,0.01,Wunderground v.1.15,2013-04-08 12:40:00,
2013-04-08 07:50:00,55.9,54.8,29.61,East,96,0.0,0.0,96,0.00,,,0.01,Wunderground v.1.15,2013-04-08 12:50:00,
2013-04-08 08:00:00,56.0,54.9,29.61,East,91,0.0,0.0,96,0.00,,,0.01,Wunderground v.1.15,2013-04-08 13:00:00,
2013-04-08 08:10:00,56.3,55.2,29.61,East,91,0.0,0.0,96,0.00,,,0.01,Wunderground v.1.15,2013-04-08 13:10:00,
2013-04-08 08:20:00,56.5,55.4,29.61,NE,54,0.0,0.0,96,0.00,,,0.01,Wunderground v.1.15,2013-04-08 13:20:00,
2013-04-08 08:30:00,56.9,55.8,29.61,ESE,105,0.0,0.0,96,0.00,,,0.01,Wunderground v.1.15,2013-04-08 13:30:00,
2013-04-08 08:40:00,57.2,56.1,29.61,ESE,105,0.0,0.0,96,0.00,,,0.01,Wunderground v.1.15,2013-04-08 13:40:00,
2013-04-08 08:50:00,57.5,56.4,29.61,SE,127,0.0,0.0,96,0.00,,,0.01,Wunderground v.1.15,2013-04-08 13:50:00,
2013-04-08 09:00:00,57.6,56.5,29.61,ESE,104,0.0,0.0,96,0.00,,,0.01,Wunderground v.1.15,2013-04-08 14:00:00,
2013-04-08 09:10:00,57.8,56.7,29.61,ESE,120,1.0,1.0,96,0.00,,,0.01,Wunderground v.1.15,2013-04-08 14:10:00,
2013-04-08 09:20:00,58.1,57.0,29.60,East,87,1.0,2.0,96,0.00,,,0.01,Wunderground v.1.15,2013-04-08 14:20:00,
2013-04-08 09:50:00,58.4,57.3,29.61,ESE,123,3.0,5.0,96,0.00,,,0.01,Wunderground v.1.15,2013-04-08 14:50:00,
2013-04-08 10:00:00,58.7,57.6,29.61,SE,131,3.0,3.0,96,0.00,,,0.01,Wunderground v.1.15,2013-04-08 15:00:00,
2013-04-08 10:10:00,59.2,58.1,29.61,ESE,112,3.0,4.0,96,0.00,,,0.01,Wunderground v.1.15,2013-04-08 15:10:00,
2013-04-08 10:20:00,59.5,58.4,29.61,SSE,148,3.0,4.0,96,0.00,,,0.01,Wunderground v.1.15,2013-04-08 15:20:00,
2013-04-08 10:30:00,59.7,58.3,29.61,SE,131,4.0,4.0,95,0.00,,,0.01,Wunderground v.1.15,2013-04-08 15:30:00,
2013-04-08 10:40:00,59.9,58.5,29.61,SSE,155,4.0,4.0,95,0.00,,,0.01,Wunderground v.1.15,2013-04-08 15:40:00,
2013-04-08 11:00:00,60.3,58.9,29.61,ESE,108,3.0,3.0,95,0.00,,,0.01,Wunderground v.1.15,2013-04-08 16:00:00,
2013-04-08 11:10:00,60.3,58.6,29.61,ESE,121,4.0,4.0,94,0.00,,,0.01,Wunderground v.1.15,2013-04-08 16:10:00,
2013-04-08 11:20:00,60.3,58.6,29.62,SSE,159,4.0,5.0,94,0.00,,,0.01,Wunderground v.1.15,2013-04-08 16:20:00,
2013-04-08 11:40:00,60.7,59.0,29.61,ESE,122,5.0,5.0,94,0.00,,,0.01,Wunderground v.1.15,2013-04-08 16:40:00,
2013-04-08 11:50:00,60.9,59.2,29.61,SE,129,2.0,2.0,94,0.00,,,0.01,Wunderground v.1.15,2013-04-08 16:50:00,
2013-04-08 12:00:00,61.3,59.6,29.61,SSE,147,2.0,4.0,94,0.00,,,0.01,Wunderground v.1.15,2013-04-08 17:00:00,
2013-04-08 12:10:00,61.6,59.6,29.60,East,99,2.0,2.0,93,0.00,,,0.01,Wunderground v.1.15,2013-04-08 17:10:00,
2013-04-08 12:20:00,62.1,60.1,29.60,SE,131,3.0,3.0,93,0.00,,,0.01,Wunderground v.1.15,2013-04-08 17:20:00,
2013-04-08 12:30:00,62.5,60.4,29.60,ESE,114,4.0,4.0,93,0.00,,,0.01,Wunderground v.1.15,2013-04-08 17:30:00,
2013-04-08 12:40:00,62.8,60.4,29.60,SE,145,4.0,5.0,92,0.00,,,0.01,Wunderground v.1.15,2013-04-08 17:40:00,
2013-04-08 12:50:00,63.0,60.3,29.59,SE,139,2.0,2.0,91,0.00,,,0.01,Wunderground v.1.15,2013-04-08 17:50:00,
2013-04-08 13:00:00,63.8,61.1,29.59,SE,136,1.0,4.0,91,0.00,,,0.01,Wunderground v.1.15,2013-04-08 18:00:00,
2013-04-08 13:10:00,64.4,61.4,29.58,ESE,114,2.0,2.0,90,0.00,,,0.01,Wunderground v.1.15,2013-04-08 18:10:00,
2013-04-08 13:20:00,65.3,61.7,29.58,SE,141,2.0,3.0,88,0.00,,,0.01,Wunderground v.1.15,2013-04-08 18:20:00,
2013-04-08 13:30:00,65.8,61.8,29.58,NNW,340,2.0,2.0,87,0.00,,,0.01,Wunderground v.1.15,2013-04-08 18:30:00,
2013-04-08 13:40:00,66.1,61.8,29.58,ESE,122,2.0,3.0,86,0.00,,,0.01,Wunderground v.1.15,2013-04-08 18:40:00,
2013-04-08 13:50:00,66.5,61.8,29.57,East,99,2.0,4.0,85,0.00,,,0.01,Wunderground v.1.15,2013-04-08 18:50:00,
2013-04-08 14:00:00,67.1,62.4,29.57,East,96,2.0,2.0,85,0.00,,,0.01,Wunderground v.1.15,2013-04-08 19:00:00,
2013-04-08 14:10:00,68.2,62.8,29.57,ESE,107,2.0,2.0,83,0.00,,,0.01,Wunderground v.1.15,2013-04-08 19:10:00,
2013-04-08 14:20:00,68.9,62.8,29.56,ESE,105,2.0,2.0,81,0.00,,,0.01,Wunderground v.1.15,2013-04-08 19:20:00,
2013-04-08 14:30:00,69.7,63.3,29.56,East,79,2.0,2.0,80,0.00,,,0.01,Wunderground v.1.15,2013-04-08 19:30:00,
2013-04-08 14:40:00,70.3,63.8,29.55,NE,39,2.0,2.0,80,0.00,,,0.01,Wunderground v.1.15,2013-04-08 19:40:00,
2013-04-08 14:50:00,71.2,62.5,29.54,East,96,4.0,4.0,74,0.00,,,0.01,Wunderground v.1.15,2013-04-08 19:50:00,
2013-04-08 15:00:00,71.8,62.3,29.54,SE,127,4.0,8.0,72,0.00,,,0.01,Wunderground v.1.15,2013-04-08 20:00:00,
2013-04-08 15:10:00,72.7,62.3,29.54,NNW,335,6.0,6.0,70,0.00,,,0.01,Wunderground v.1.15,2013-04-08 20:10:00,
2013-04-08 15:20:00,72.9,61.7,29.53,East,91,6.0,7.0,68,0.00,,,0.01,Wunderground v.1.15,2013-04-08 20:20:00,
2013-04-08 15:30:00,73.5,61.4,29.53,SSE,163,6.0,7.0,66,0.00,,,0.01,Wunderground v.1.15,2013-04-08 20:30:00,
2013-04-08 15:40:00,73.5,61.0,29.53,ESE,105,7.0,7.0,65,0.00,,,0.01,Wunderground v.1.15,2013-04-08 20:40:00,
2013-04-08 15:50:00,73.5,61.0,29.52,ESE,108,5.0,7.0,65,0.00,,,0.01,Wunderground v.1.15,2013-04-08 20:50:00,
2013-04-08 16:00:00,73.5,61.0,29.52,ESE,122,6.0,6.0,65,0.00,,,0.01,Wunderground v.1.15,2013-04-08 21:00:00,
2013-04-08 16:10:00,74.2,61.7,29.52,ESE,120,5.0,6.0,65,0.00,,,0.01,Wunderground v.1.15,2013-04-08 21:10:00,
2013-04-08 16:20:00,74.4,61.0,29.51,ESE,108,5.0,5.0,63,0.00,,,0.01,Wunderground v.1.15,2013-04-08 21:20:00,
2013-04-08 16:30:00,75.2,60.4,29.51,SSE,148,7.0,8.0,60,0.00,,,0.01,Wunderground v.1.15,2013-04-08 21:30:00,
2013-04-08 16:40:00,75.9,60.5,29.50,ENE,76,6.0,10.0,59,0.00,,,0.01,Wunderground v.1.15,2013-04-08 21:40:00,
2013-04-08 16:50:00,75.3,59.5,29.50,SE,136,6.0,9.0,58,0.00,,,0.01,Wunderground v.1.15,2013-04-08 21:50:00,
2013-04-08 17:00:00,75.5,60.2,29.49,SE,144,7.0,7.0,59,0.00,,,0.01,Wunderground v.1.15,2013-04-08 22:00:00,
2013-04-08 17:10:00,76.1,59.3,29.49,ENE,70,7.0,10.0,56,0.00,,,0.01,Wunderground v.1.15,2013-04-08 22:10:00,
2013-04-08 17:20:00,75.4,59.1,29.50,SE,129,6.0,8.0,57,0.00,,,0.01,Wunderground v.1.15,2013-04-08 22:20:00,
2013-04-08 17:30:00,75.3,60.0,29.49,NE,37,6.0,6.0,59,0.00,,,0.01,Wunderground v.1.15,2013-04-08 22:30:00,
2013-04-08 17:50:00,73.7,59.4,29.50,SE,131,5.0,7.0,61,0.00,,,0.01,Wunderground v.1.15,2013-04-08 22:50:00,
2013-04-08 18:00:00,73.5,58.8,29.50,SE,138,5.0,5.0,60,0.00,,,0.01,Wunderground v.1.15,2013-04-08 23:00:00,
2013-04-08 18:10:00,72.9,60.0,29.50,ESE,117,5.0,6.0,64,0.00,,,0.01,Wunderground v.1.15,2013-04-08 23:10:00,
2013-04-08 18:30:00,72.3,59.0,29.50,ESE,122,6.0,6.0,63,0.00,,,0.01,Wunderground v.1.15,2013-04-08 23:30:00,
2013-04-08 18:40:00,73.0,58.8,29.49,SE,128,6.0,6.0,61,0.00,,,0.01,Wunderground v.1.15,2013-04-08 23:40:00,
2013-04-08 18:50:00,73.3,58.6,29.49,SE,127,6.0,6.0,60,0.00,,,0.01,Wunderground v.1.15,2013-04-08 23:50:00,
2013-04-08 19:00:00,72.9,59.1,29.49,SSE,163,6.0,8.0,62,0.00,,,0.01,Wunderground v.1.15,2013-04-09 00:00:00,
2013-04-08 19:10:00,72.2,58.9,29.49,ESE,120,7.0,7.0,63,0.00,,,0.01,Wunderground v.1.15,2013-04-09 00:10:00,
2013-04-08 19:20:00,71.3,59.4,29.50,ESE,120,5.0,5.0,66,0.00,,,0.01,Wunderground v.1.15,2013-04-09 00:20:00,
2013-04-08 19:30:00,70.6,59.5,29.50,NE,46,4.0,4.0,68,0.00,,,0.01,Wunderground v.1.15,2013-04-09 00:30:00,
2013-04-08 19:40:00,70.1,59.5,29.50,ESE,111,5.0,5.0,69,0.00,,,0.01,Wunderground v.1.15,2013-04-09 00:40:00,
2013-04-08 19:50:00,69.9,59.3,29.50,SSE,166,5.0,5.0,69,0.00,,,0.01,Wunderground v.1.15,2013-04-09 00:50:00,
2013-04-08 20:00:00,69.6,59.0,29.50,SE,132,5.0,8.0,69,0.00,,,0.01,Wunderground v.1.15,2013-04-09 01:00:00,
2013-04-08 20:10:00,69.2,58.6,29.50,SE,134,6.0,6.0,69,0.00,,,0.01,Wunderground v.1.15,2013-04-09 01:10:00,
2013-04-08 20:20:00,68.7,58.1,29.50,ENE,73,5.0,5.0,69,0.00,,,0.01,Wunderground v.1.15,2013-04-09 01:20:00,
2013-04-08 20:30:00,68.2,58.0,29.50,East,100,5.0,5.0,70,0.00,,,0.01,Wunderground v.1.15,2013-04-09 01:30:00,
2013-04-08 20:50:00,67.5,58.2,29.52,East,96,4.0,4.0,72,0.00,,,0.01,Wunderground v.1.15,2013-04-09 01:50:00,
2013-04-08 21:00:00,67.4,58.4,29.53,SE,135,5.0,5.0,73,0.00,,,0.01,Wunderground v.1.15,2013-04-09 02:00:00,
2013-04-08 21:10:00,67.2,58.6,29.53,SSE,149,3.0,10.0,74,0.00,,,0.01,Wunderground v.1.15,2013-04-09 02:10:00,
2013-04-08 21:20:00,67.0,59.2,29.53,ESE,123,5.0,5.0,76,0.00,,,0.01,Wunderground v.1.15,2013-04-09 02:20:00,
2013-04-08 21:30:00,66.9,59.5,29.54,SSE,150,5.0,6.0,77,0.00,,,0.01,Wunderground v.1.15,2013-04-09 02:30:00,
2013-04-08 21:40:00,66.4,59.3,29.54,ESE,114,4.0,4.0,78,0.00,,,0.01,Wunderground v.1.15,2013-04-09 02:40:00,
2013-04-08 21:50:00,66.0,59.7,29.54,ESE,123,6.0,6.0,80,0.00,,,0.01,Wunderground v.1.15,2013-04-09 02:50:00,
2013-04-08 22:00:00,65.6,59.6,29.54,ESE,114,6.0,8.0,81,0.00,,,0.01,Wunderground v.1.15,2013-04-09 03:00:00,
2013-04-08 22:10:00,65.6,60.0,29.53,ESE,114,5.0,7.0,82,0.00,,,0.01,Wunderground v.1.15,2013-04-09 03:10:00,
2013-04-08 22:20:00,65.4,59.8,29.52,East,100,6.0,6.0,82,0.00,,,0.01,Wunderground v.1.15,2013-04-09 03:20:00,
2013-04-08 22:30:00,65.1,59.5,29.51,SE,128,5.0,5.0,82,0.00,,,0.01,Wunderground v.1.15,2013-04-09 03:30:00,
2013-04-08 22:40:00,64.8,59.5,29.50,ESE,117,5.0,7.0,83,0.00,,,0.01,Wunderground v.1.15,2013-04-09 03:40:00,
2013-04-08 22:50:00,64.3,59.4,29.49,ESE,115,6.0,6.0,84,0.00,,,0.01,Wunderground v.1.15,2013-04-09 03:50:00,
2013-04-08 23:00:00,64.0,59.1,29.49,SE,126,6.0,6.0,84,0.00,,,0.01,Wunderground v.1.15,2013-04-09 04:00:00,
2013-04-08 23:10:00,63.8,59.2,29.49,East,86,7.0,7.0,85,0.00,,,0.01,Wunderground v.1.15,2013-04-09 04:10:00,
2013-04-08 23:20:00,63.9,59.3,29.49,ENE,67,7.0,7.0,85,0.00,,,0.01,Wunderground v.1.15,2013-04-09 04:20:00,
2013-04-08 23:30:00,63.8,59.2,29.49,East,80,7.0,7.0,85,0.00,,,0.01,Wunderground v.1.15,2013-04-09 04:30:00,
2013-04-08 23:40:00,63.8,59.2,29.48,SE,131,6.0,6.0,85,0.00,,,0.01,Wunderground v.1.15,2013-04-09 04:40:00,
2013-04-08 23:50:00,64.2,59.6,29.48,ESE,110,6.0,6.0,85,0.00,,,0.01,Wunderground v.1.15,2013-04-09 04:50:00,